Content
SEND FEEDBACK

Daily
Averages
Monthly
Summary
Austria

ZELTWEG, AUSTRIA


Home > Europe > Austria
Elevation: 686 meters     Latitude: 47 12N     Longitude: 014 44E

WEATHER
 
SELECT A DAY
Number of Records: 36,027;   Date Range: 12/26/03 - 7/21/14
 
SHARE

PRINT THIS DATA

[ ← Previous Day ]
WEATHER ALMANAC - 31 JANUARY, 2013
[ Next Day → ]
[ °F ]   °C
Weather ElementAverageHighLow
Temperature5.6 °C11 °C (2:50 pm)-4 °C (9:50 pm)
Dewpoint-8.7 °C-6 °C (7:50 pm)-13 °C (3:20 pm)
Humidity38.1 %80 % (9:50 pm)19 % (2:50 pm)
Barometer1016.6 hPa1020 hPa (10:20 am)1013.2 hPa (4:50 pm)
Wind Speed17.7 km/h37 km/h (6:50 am)
Wind Gust55.5 km/h (6:50 am)
Weather ElementAverage
Visibility47 km
Wind DirectionSSW (195 °)

Weather ElementTotal
Precipitation---
Heating Degree Days14.8 (Base 18.3)
Averaged from 28 records on 31 January, 2013
WEATHER CONDITIONS BREAKOUT
WIND DIRECTION BREAKOUT
WEATHER BY HOUR - 31 JANUARY, 2013
[ °F ]   °C
Local TimeTemperatureDewpointHumidityBarometerVisibilityWind DirectionWind SpeedGust SpeedPrecipitationEventsConditions
5:50 AM5 °C-7 °C42 %1016.3 hPa20 kmWest (270°)29.6 km/hPartly Cloudy
6:50 AM6 °C-8 °C36 %1017.3 hPa20 kmWest (270°)37 km/h55.5 km/hPartly Cloudy
7:20 AM5 °C-7 °C42 %1017.3 hPa40.1 kmWest (260°)24.1 km/hPartly Cloudy
7:50 AM5 °C-8 °C39 %1017.9 hPa40.1 kmWSW (250°)27.8 km/hPartly Cloudy
8:20 AM6 °C-9 °C34 %1017.9 hPa40.1 kmWSW (250°)29.6 km/hPartly Cloudy
8:50 AM6 °C-9 °C34 %1019 hPa60 kmWSW (250°)31.5 km/h50.1 km/hPartly Cloudy
9:20 AM5 °C-8 °C39 %1019 hPa60 kmWSW (240°)24.1 km/hScattered Clouds
9:50 AM6 °C-8 °C36 %1019 hPa60 kmWSW (250°)35.2 km/hScattered Clouds
10:20 AM6 °C-7 °C39 %1020 hPa60 kmWest (260°)35.2 km/hScattered Clouds
10:50 AM7 °C-10 °C29 %1020 hPa60 kmWest (280°)31.5 km/hMostly Cloudy
11:20 AM7 °C-9 °C31 %1020 hPa60 kmWest (280°)24.1 km/h44.4 km/hMostly Cloudy
11:50 AM7 °C-8 °C34 %1019 hPa60 kmWest (260°)16.7 km/hScattered Clouds
12:20 PM7 °C-9 °C31 %1019 hPa60 kmWest (270°)18.5 km/hPartly Cloudy
12:50 PM8 °C-9 °C29 %1017.9 hPa60 kmWSW (250°)18.5 km/hScattered Clouds
1:20 PM8 °C-9 °C29 %1017.9 hPa60 kmWest (280°)22.2 km/hScattered Clouds
1:50 PM9 °C-12 °C22 %1017.3 hPa60 kmWNW (300°)18.5 km/hPartly Cloudy
2:20 PM9 °C-11 °C24 %1016.3 hPa60 kmWSW (250°)11.1 km/hPartly Cloudy
2:50 PM11 °C-12 °C19 %1015.2 hPa60 kmSSW (200°)5.6 km/hPartly Cloudy
3:20 PM10 °C-13 °C19 %1015.2 hPa60 kmSouth (190°)9.3 km/hPartly Cloudy
3:50 PM9 °C-11 °C24 %1014.2 hPa60 kmSSW (200°)11.1 km/hPartly Cloudy
4:20 PM8 °C-9 °C29 %1014.2 hPa60 kmSouth (180°)9.3 km/hPartly Cloudy
4:50 PM5 °C-8 °C39 %1013.2 hPa60 kmVariable5.6 km/hPartly Cloudy
5:20 PM3 °C-8 °C45 %1013.2 hPa60 kmVariable3.7 km/hPartly Cloudy
5:50 PM2 °C-7 °C52 %1013.2 hPa15 kmVariable1.9 km/hScattered Clouds
6:50 PM1 °C-7 °C56 %1013.2 hPa15 kmSW (220°)3.7 km/hMostly Cloudy
7:50 PM0 °C-6 °C64 %1013.2 hPa15 kmVariable3.7 km/hMostly Cloudy
8:50 PM-1 °C-6 °C69 %1013.2 hPa15 kmVariable3.7 km/hMostly Cloudy
9:50 PM-4 °C-7 °C80 %1013.2 hPa15 kmVariable3.7 km/hMostly Cloudy
Hourly data recorded from LOXZ, located 0 kilometers away from Zeltweg, Austria







STORIES FROM OUR PARTNERS